Zurück zum Katalog

TIBA-1

AktivKommunikationGEO
NORAD 44800·PAYLOAD·🇪🇬 Egypt

Gestartet Nov 26, 2019 von Guiana Space Centre

Loading…

TLE

AktuellSource: Space-Track

Epoche: Sep 14, 2026, 22:31 UTC

1 44800U 19080A   26257.93855414  .00000149  00000-0  00000-0 0  9999
2 44800   0.0557 341.6748 0002389 195.9482 189.6539  1.00274682 24948

Verfolge TIBA-1 in Echtzeit mit AllMySat

Download on the App Store